| time (UTC) | temp F | wind direction | speed knots | gust knots | rain 1hr in | rain 24hr in | rain mn in | humidity % | barometer mb |
| 20260906131636 | 89 | 335 | 1.7 | 2.6 | 0.00 | 0.00 | 0.00 | 62 | 1013.8 |
| 20260906131131 | 88 | 277 | 0.9 | 3.5 | 0.00 | 0.00 | 0.00 | 61 | 1014.0 |
| 20260906130626 | 89 | 318 | 1.7 | 2.6 | 0.00 | 0.00 | 0.00 | 59 | 1013.9 |
| 20260906130121 | 90 | 223 | 1.7 | 3.5 | 0.00 | 0.00 | 0.00 | 60 | 1013.8 |
| 20260906125619 | 89 | 303 | 0.9 | 3.5 | 0.00 | 0.00 | 0.00 | 60 | 1013.9 |
| 20260906125117 | 88 | 284 | 1.7 | 4.3 | 0.00 | 0.00 | 0.00 | 63 | 1014.1 |
| 20260906124613 | 88 | 331 | 1.7 | 2.6 | 0.00 | 0.00 | 0.00 | 63 | 1014.1 |
| 20260906124108 | 89 | 297 | 1.7 | 3.5 | 0.00 | 0.00 | 0.00 | 60 | 1014.0 |
| 20260906123608 | 89 | 329 | 0.0 | 4.3 | 0.00 | 0.00 | 0.00 | 59 | 1014.0 |
| 20260906123103 | 90 | 312 | 4.3 | 7.0 | 0.00 | 0.00 | 0.00 | 59 | 1013.9 |
| 20260906122601 | 90 | 313 | 1.7 | 8.7 | 0.00 | 0.00 | 0.00 | 58 | 1013.9 |
| 20260906122058 | 90 | 177 | 1.7 | 3.5 | 0.00 | 0.00 | 0.00 | 60 | 1013.9 |
| 20260906121554 | 90 | 339 | 1.7 | 2.6 | 0.00 | 0.00 | 0.00 | 59 | 1013.9 |
| 20260906121050 | 89 | 258 | 3.5 | 10.4 | 0.00 | 0.00 | 0.00 | 60 | 1013.9 |
| 20260906120545 | 89 | 334 | 2.6 | 7.0 | 0.00 | 0.00 | 0.00 | 59 | 1014.0 |
| 20260906120042 | 91 | 346 | 3.5 | 4.3 | 0.00 | 0.00 | 0.00 | 58 | 1013.8 |
| 20260906115537 | 93 | 317 | 1.7 | 2.6 | 0.00 | 0.00 | 0.00 | 57 | 1014.0 |
| 20260906115032 | 92 | 99 | 0.0 | 3.5 | 0.00 | 0.00 | 0.00 | 57 | 1014.0 |
| 20260906114531 | 91 | 280 | 1.7 | 2.6 | 0.00 | 0.00 | 0.00 | 58 | 1014.0 |
| 20260906114027 | 90 | 338 | 0.9 | 4.3 | 0.00 | 0.00 | 0.00 | 59 | 1014.1 |
| 20260906113525 | 90 | 281 | 1.7 | 4.3 | 0.00 | 0.00 | 0.00 | 59 | 1014.1 |
| 20260906113022 | 90 | 305 | 0.0 | 7.0 | 0.00 | 0.00 | 0.00 | 57 | 1014.2 |
| 20260906112516 | 91 | 330 | 2.6 | 4.3 | 0.00 | 0.00 | 0.00 | 57 | 1014.2 |
| 20260906112013 | 91 | 340 | 2.6 | 4.3 | 0.00 | 0.00 | 0.00 | 58 | 1014.1 |
| 20260906111507 | 91 | 296 | 0.0 | 5.2 | 0.00 | 0.00 | 0.00 | 58 | 1014.1 |
| 20260906111002 | 91 | 0 | 1.7 | 10.4 | 0.00 | 0.00 | 0.00 | 55 | 1014.2 |
| 20260906110457 | 91 | 313 | 0.0 | 3.5 | 0.00 | 0.00 | 0.00 | 58 | 1014.1 |
| 20260906105955 | 90 | 156 | 1.7 | 5.2 | 0.00 | 0.00 | 0.00 | 60 | 1014.2 |
| 20260906105452 | 91 | 308 | 2.6 | 5.2 | 0.00 | 0.00 | 0.00 | 58 | 1014.2 |
| 20260906104947 | 92 | 118 | 0.0 | 3.5 | 0.00 | 0.00 | 0.00 | 58 | 1014.3 |
| 20260906104446 | 92 | 325 | 1.7 | 5.2 | 0.00 | 0.00 | 0.00 | 57 | 1014.2 |
| 20260906103945 | 92 | 285 | 1.7 | 3.5 | 0.00 | 0.00 | 0.00 | 56 | 1014.3 |
| 20260906103444 | 92 | 87 | 2.6 | 4.3 | 0.00 | 0.00 | 0.00 | 58 | 1014.3 |
| 20260906102939 | 92 | 310 | 2.6 | 3.5 | 0.00 | 0.00 | 0.00 | 58 | 1014.1 |
| 20260906102438 | 91 | 209 | 1.7 | 5.2 | 0.00 | 0.00 | 0.00 | 58 | 1014.1 |
| 20260906101933 | 93 | 173 | 3.5 | 3.5 | 0.00 | 0.00 | 0.00 | 55 | 1014.1 |
| 20260906101428 | 93 | 183 | 1.7 | 2.6 | 0.00 | 0.00 | 0.00 | 55 | 1014.0 |
| 20260906100923 | 92 | 296 | 1.7 | 5.2 | 0.00 | 0.00 | 0.00 | 55 | 1014.4 |
| 20260906100418 | 93 | 216 | 1.7 | 7.8 | 0.00 | 0.00 | 0.00 | 55 | 1014.3 |
| 20260906095918 | 93 | 310 | 1.7 | 3.5 | 0.00 | 0.00 | 0.00 | 53 | 1014.3 |
| 20260906095414 | 93 | 247 | 1.7 | 3.5 | 0.00 | 0.00 | 0.00 | 53 | 1014.2 |
| 20260906094908 | 94 | 285 | 4.3 | 7.0 | 0.00 | 0.00 | 0.00 | 51 | 1014.2 |
| 20260906094403 | 93 | 111 | 1.7 | 4.3 | 0.00 | 0.00 | 0.00 | 51 | 1014.0 |
| 20260906093859 | 93 | 296 | 1.7 | 4.3 | 0.00 | 0.00 | 0.00 | 52 | 1014.2 |
| 20260906093355 | 94 | 135 | 1.7 | 4.3 | 0.00 | 0.00 | 0.00 | 51 | 1014.2 |
| 20260906092855 | 93 | 84 | 0.9 | 4.3 | 0.00 | 0.00 | 0.00 | 52 | 1014.1 |
| 20260906092355 | 93 | 299 | 0.0 | 2.6 | 0.00 | 0.00 | 0.00 | 53 | 1013.9 |
| 20260906091850 | 94 | 347 | 3.5 | 9.6 | 0.00 | 0.00 | 0.00 | 51 | 1014.1 |
| 20260906091346 | 93 | 298 | 0.9 | 7.0 | 0.00 | 0.00 | 0.00 | 52 | 1014.1 |
| 20260906090842 | 93 | 288 | 3.5 | 3.5 | 0.00 | 0.00 | 0.00 | 53 | 1014.1 |
| 20260906090342 | 93 | 348 | 0.9 | 2.6 | 0.00 | 0.00 | 0.00 | 54 | 1014.2 |
| 20260906085836 | 91 | 173 | 4.3 | 7.8 | 0.00 | 0.00 | 0.00 | 53 | 1014.0 |
| 20260906085335 | 92 | 173 | 3.5 | 7.0 | 0.00 | 0.00 | 0.00 | 55 | 1014.0 |
| 20260906084825 | 92 | 133 | 4.3 | 5.2 | 0.00 | 0.00 | 0.00 | 51 | 1014.1 |
| 20260906084324 | 91 | 158 | 2.6 | 6.1 | 0.00 | 0.00 | 0.00 | 53 | 1014.1 |
| 20260906083819 | 90 | 126 | 1.7 | 7.0 | 0.00 | 0.00 | 0.00 | 56 | 1014.2 |
| 20260906083314 | 90 | 170 | 3.5 | 7.0 | 0.00 | 0.00 | 0.00 | 56 | 1014.3 |
| 20260906082809 | 91 | 202 | 2.6 | 5.2 | 0.00 | 0.00 | 0.00 | 54 | 1014.5 |
| 20260906082306 | 92 | 120 | 1.7 | 5.2 | 0.00 | 0.00 | 0.00 | 52 | 1014.2 |
| 20260906081759 | 92 | 159 | 1.7 | 3.5 | 0.00 | 0.00 | 0.00 | 52 | 1014.5 |
| 20260906081255 | 91 | 251 | 0.0 | 4.3 | 0.00 | 0.00 | 0.00 | 53 | 1014.6 |
| 20260906080752 | 91 | 312 | 1.7 | 3.5 | 0.00 | 0.00 | 0.00 | 54 | 1014.7 |
| 20260906080248 | 92 | 172 | 1.7 | 3.5 | 0.00 | 0.00 | 0.00 | 52 | 1014.6 |
| 20260906075747 | 91 | 165 | 1.7 | 3.5 | 0.00 | 0.00 | 0.00 | 53 | 1014.8 |
| 20260906075241 | 91 | 181 | 2.6 | 3.5 | 0.00 | 0.00 | 0.00 | 55 | 1014.9 |
| 20260906074737 | 89 | 122 | 1.7 | 5.2 | 0.00 | 0.00 | 0.00 | 57 | 1014.8 |
| 20260906074236 | 90 | 175 | 3.5 | 9.6 | 0.00 | 0.00 | 0.00 | 58 | 1014.8 |
| 20260906073731 | 90 | 190 | 1.7 | 8.7 | 0.00 | 0.00 | 0.00 | 59 | 1015.0 |
| 20260906073231 | 90 | 303 | 2.6 | 3.5 | 0.00 | 0.00 | 0.00 | 59 | 1015.0 |
| 20260906072726 | 89 | 273 | 0.0 | 4.3 | 0.00 | 0.00 | 0.00 | 61 | 1014.9 |
| 20260906072222 | 87 | 127 | 1.7 | 4.3 | 0.00 | 0.00 | 0.00 | 64 | 1015.0 |
| 20260906071718 | 89 | 279 | 1.7 | 5.2 | 0.00 | 0.00 | 0.00 | 61 | 1015.2 |
| 20260906071217 | 88 | 284 | 2.6 | 7.0 | 0.00 | 0.00 | 0.00 | 62 | 1015.0 |
| 20260906070714 | 88 | 204 | 7.8 | 9.6 | 0.00 | 0.00 | 0.00 | 62 | 1014.9 |
| 20260906070209 | 87 | 160 | 1.7 | 3.5 | 0.00 | 0.00 | 0.00 | 63 | 1014.9 |
| 20260906065704 | 87 | 216 | 1.7 | 6.1 | 0.00 | 0.00 | 0.00 | 61 | 1014.9 |
| 20260906065159 | 86 | 183 | 2.6 | 8.7 | 0.00 | 0.00 | 0.00 | 62 | 1014.9 |
| 20260906064655 | 86 | 196 | 0.0 | 7.0 | 0.00 | 0.00 | 0.00 | 67 | 1014.9 |
| 20260906064150 | 85 | 194 | 3.5 | 4.3 | 0.00 | 0.00 | 0.00 | 68 | 1015.0 |
| 20260906063645 | 85 | 192 | 2.6 | 7.0 | 0.00 | 0.00 | 0.00 | 68 | 1014.8 |
| 20260906063141 | 86 | 180 | 3.5 | 5.2 | 0.00 | 0.00 | 0.00 | 66 | 1014.9 |
| 20260906062637 | 86 | 179 | 2.6 | 3.5 | 0.00 | 0.00 | 0.00 | 68 | 1014.7 |
| 20260906062135 | 85 | 143 | 3.5 | 7.0 | 0.00 | 0.00 | 0.00 | 70 | 1014.8 |
| 20260906061631 | 84 | 154 | 1.7 | 6.1 | 0.00 | 0.00 | 0.00 | 72 | 1014.6 |
| 20260906061131 | 84 | 159 | 3.5 | 7.8 | 0.00 | 0.00 | 0.00 | 71 | 1014.6 |
| 20260906060627 | 84 | 179 | 2.6 | 5.2 | 0.00 | 0.00 | 0.00 | 72 | 1014.7 |
| 20260906060120 | 83 | 160 | 3.5 | 6.1 | 0.00 | 0.00 | 0.00 | 73 | 1014.7 |
| 20260906055615 | 83 | 176 | 2.6 | 6.1 | 0.00 | 0.00 | 0.00 | 74 | 1014.6 |
| 20260906055110 | 83 | 181 | 3.5 | 5.2 | 0.00 | 0.00 | 0.00 | 74 | 1014.5 |
| 20260906054610 | 83 | 179 | 3.5 | 5.2 | 0.00 | 0.00 | 0.00 | 74 | 1014.5 |
| 20260906054100 | 83 | 168 | 3.5 | 5.2 | 0.00 | 0.00 | 0.00 | 74 | 1014.6 |
| 20260906053556 | 82 | 180 | 2.6 | 7.8 | 0.00 | 0.00 | 0.00 | 74 | 1014.6 |
| 20260906053052 | 81 | 148 | 4.3 | 7.8 | 0.00 | 0.00 | 0.00 | 76 | 1014.6 |
| 20260906052547 | 81 | 148 | 3.5 | 5.2 | 0.00 | 0.00 | 0.00 | 76 | 1014.7 |
| 20260906052044 | 80 | 155 | 2.6 | 7.0 | 0.00 | 0.00 | 0.00 | 76 | 1014.7 |
| 20260906051539 | 80 | 156 | 2.6 | 5.2 | 0.00 | 0.00 | 0.00 | 77 | 1014.5 |
| 20260906051034 | 80 | 136 | 3.5 | 7.0 | 0.00 | 0.00 | 0.00 | 78 | 1014.6 |
| 20260906050529 | 79 | 189 | 3.5 | 6.1 | 0.00 | 0.00 | 0.00 | 78 | 1014.5 |
| 20260906050024 | 79 | 182 | 3.5 | 5.2 | 0.00 | 0.00 | 0.00 | 78 | 1014.6 |
| 20260906045523 | 79 | 164 | 2.6 | 7.0 | 0.00 | 0.00 | 0.00 | 79 | 1014.5 |
| 20260906045019 | 78 | 157 | 3.5 | 5.2 | 0.00 | 0.00 | 0.00 | 80 | 1014.5 |
| 20260906044514 | 77 | 178 | 2.6 | 5.2 | 0.00 | 0.00 | 0.00 | 81 | 1014.5 |
| 20260906044009 | 77 | 173 | 4.3 | 6.1 | 0.00 | 0.00 | 0.00 | 80 | 1014.5 |
| 20260906043505 | 77 | 143 | 4.3 | 7.0 | 0.00 | 0.00 | 0.00 | 82 | 1014.7 |
| 20260906043001 | 76 | 149 | 3.5 | 4.3 | 0.00 | 0.00 | 0.00 | 83 | 1014.6 |
| 20260906042500 | 76 | 151 | 1.7 | 4.3 | 0.00 | 0.00 | 0.00 | 83 | 1014.6 |
| 20260906041959 | 76 | 191 | 4.3 | 4.3 | 0.00 | 0.00 | 0.00 | 83 | 1014.5 |
| 20260906041456 | 76 | 152 | 2.6 | 6.1 | 0.00 | 0.00 | 0.00 | 83 | 1014.7 |
| 20260906040955 | 76 | 188 | 3.5 | 4.3 | 0.00 | 0.00 | 0.00 | 83 | 1014.3 |
| 20260906040450 | 76 | 154 | 1.7 | 4.3 | 0.00 | 0.00 | 0.00 | 84 | 1014.5 |
| 20260906035946 | 75 | 177 | 3.5 | 4.3 | 0.00 | 0.00 | 0.00 | 84 | 1014.4 |
| 20260906035441 | 75 | 197 | 4.3 | 4.3 | 0.00 | 0.00 | 0.00 | 85 | 1014.3 |
| 20260906034936 | 75 | 200 | 3.5 | 5.2 | 0.00 | 0.00 | 0.00 | 85 | 1014.3 |
| 20260906034431 | 74 | 195 | 2.6 | 3.5 | 0.00 | 0.00 | 0.00 | 86 | 1014.2 |
| 20260906033926 | 74 | 154 | 1.7 | 2.6 | 0.00 | 0.00 | 0.00 | 86 | 1014.2 |
| 20260906033421 | 74 | 192 | 2.6 | 3.5 | 0.00 | 0.00 | 0.00 | 86 | 1014.3 |
| 20260906032916 | 74 | 183 | 1.7 | 2.6 | 0.00 | 0.00 | 0.00 | 86 | 1014.4 |
| 20260906032413 | 74 | 155 | 1.7 | 2.6 | 0.00 | 0.00 | 0.00 | 86 | 1014.2 |
| 20260906031907 | 74 | 202 | 2.6 | 3.5 | 0.00 | 0.00 | 0.00 | 86 | 1014.0 |
| 20260906031403 | 74 | 180 | 1.7 | 2.6 | 0.00 | 0.00 | 0.00 | 86 | 1014.2 |
| 20260906030858 | 74 | 192 | 2.6 | 3.5 | 0.00 | 0.00 | 0.00 | 86 | 1014.0 |
| 20260906030358 | 74 | 193 | 1.7 | 3.5 | 0.00 | 0.00 | 0.00 | 86 | 1014.0 |
| 20260906025852 | 74 | 183 | 1.7 | 2.6 | 0.00 | 0.00 | 0.00 | 86 | 1014.1 |
| 20260906025346 | 74 | 183 | 1.7 | 3.5 | 0.00 | 0.00 | 0.00 | 86 | 1013.9 |
| 20260906024845 | 74 | 185 | 1.7 | 3.5 | 0.00 | 0.00 | 0.00 | 86 | 1014.0 |
| 20260906024344 | 74 | 182 | 1.7 | 3.5 | 0.00 | 0.00 | 0.00 | 86 | 1014.0 |
| 20260906023840 | 74 | 181 | 0.9 | 1.7 | 0.00 | 0.00 | 0.00 | 86 | 1013.9 |
| 20260906023336 | 74 | 181 | 1.7 | 2.6 | 0.00 | 0.00 | 0.00 | 86 | 1014.0 |
| 20260906022831 | 74 | 189 | 1.7 | 2.6 | 0.00 | 0.00 | 0.00 | 86 | 1014.0 |
| 20260906022326 | 74 | 174 | 0.9 | 3.5 | 0.00 | 0.00 | 0.00 | 86 | 1013.9 |
| 20260906021822 | 74 | 189 | 1.7 | 1.7 | 0.00 | 0.00 | 0.00 | 86 | 1014.0 |
| 20260906021321 | 74 | 211 | 2.6 | 2.6 | 0.00 | 0.00 | 0.00 | 86 | 1014.0 |
| 20260906020816 | 74 | 186 | 1.7 | 3.5 | 0.00 | 0.00 | 0.00 | 86 | 1013.9 |
| 20260906020316 | 74 | 179 | 2.6 | 3.5 | 0.00 | 0.00 | 0.00 | 86 | 1014.0 |
| 20260906015816 | 74 | 203 | 1.7 | 2.6 | 0.00 | 0.00 | 0.00 | 86 | 1013.9 |
| 20260906015314 | 74 | 179 | 2.6 | 2.6 | 0.00 | 0.00 | 0.00 | 86 | 1013.9 |
| 20260906014808 | 74 | 185 | 1.7 | 3.5 | 0.00 | 0.00 | 0.00 | 86 | 1013.8 |
| 20260906014304 | 74 | 191 | 2.6 | 3.5 | 0.00 | 0.00 | 0.00 | 86 | 1013.7 |
| 20260906013800 | 74 | 183 | 1.7 | 3.5 | 0.00 | 0.00 | 0.00 | 86 | 1013.7 |
| 20260906013255 | 74 | 179 | 1.7 | 2.6 | 0.00 | 0.00 | 0.00 | 86 | 1013.7 |
| 20260906012751 | 74 | 165 | 1.7 | 2.6 | 0.00 | 0.00 | 0.00 | 86 | 1013.6 |
| 20260906012251 | 74 | 184 | 1.7 | 2.6 | 0.00 | 0.00 | 0.00 | 86 | 1013.6 |
| 20260906011747 | 74 | 203 | 2.6 | 2.6 | 0.00 | 0.00 | 0.00 | 85 | 1013.5 |
| 20260906011246 | 74 | 166 | 0.9 | 1.7 | 0.00 | 0.00 | 0.00 | 85 | 1013.5 |
| 20260906010742 | 75 | 186 | 1.7 | 2.6 | 0.00 | 0.00 | 0.00 | 85 | 1013.6 |
| 20260906010238 | 75 | 147 | 1.7 | 1.7 | 0.00 | 0.00 | 0.00 | 85 | 1013.8 |
| 20260906005733 | 75 | 198 | 1.7 | 2.6 | 0.00 | 0.00 | 0.00 | 85 | 1013.7 |
| 20260906005231 | 75 | 194 | 1.7 | 2.6 | 0.00 | 0.00 | 0.00 | 85 | 1013.7 |
| 20260906004731 | 75 | 197 | 1.7 | 2.6 | 0.00 | 0.00 | 0.00 | 85 | 1013.7 |
| 20260906004226 | 75 | 202 | 1.7 | 2.6 | 0.00 | 0.00 | 0.00 | 85 | 1013.6 |
| 20260906003721 | 75 | 194 | 2.6 | 3.5 | 0.00 | 0.00 | 0.00 | 85 | 1013.5 |
| 20260906003218 | 75 | 197 | 1.7 | 2.6 | 0.00 | 0.00 | 0.00 | 86 | 1013.6 |
| 20260906002717 | 75 | 208 | 1.7 | 2.6 | 0.00 | 0.00 | 0.00 | 86 | 1013.7 |
| 20260906002212 | 75 | 189 | 0.9 | 1.7 | 0.00 | 0.00 | 0.00 | 85 | 1013.5 |
| 20260906001708 | 75 | 177 | 0.0 | 1.7 | 0.00 | 0.00 | 0.00 | 85 | 1013.6 |
| 20260906001208 | 75 | 197 | 1.7 | 2.6 | 0.00 | 0.00 | 0.00 | 85 | 1013.7 |
| 20260906000703 | 75 | 203 | 0.0 | 1.7 | 0.00 | 0.00 | 0.00 | 85 | 1013.6 |
| 20260906000158 | 75 | 202 | 0.0 | 0.9 | 0.00 | 0.00 | 0.00 | 85 | 1013.5 |
| 20260905235657 | 75 | 205 | 0.9 | 1.7 | 0.00 | 0.00 | 0.00 | 85 | 1013.6 |
| 20260905235152 | 75 | 204 | 0.9 | 1.7 | 0.00 | 0.00 | 0.00 | 85 | 1013.4 |
| 20260905234647 | 75 | 198 | 0.9 | 1.7 | 0.00 | 0.00 | 0.00 | 85 | 1013.6 |
| 20260905234143 | 75 | 217 | 0.9 | 1.7 | 0.00 | 0.00 | 0.00 | 85 | 1013.6 |
| 20260905233638 | 75 | 199 | 0.0 | 1.7 | 0.00 | 0.00 | 0.00 | 85 | 1013.6 |
| 20260905233137 | 75 | 191 | 0.0 | 2.6 | 0.00 | 0.00 | 0.00 | 85 | 1013.6 |
| 20260905232633 | 75 | 198 | 2.6 | 2.6 | 0.00 | 0.00 | 0.00 | 84 | 1013.6 |
| 20260905232129 | 75 | 175 | 1.7 | 2.6 | 0.00 | 0.00 | 0.00 | 84 | 1013.8 |
| 20260905231629 | 75 | 190 | 1.7 | 1.7 | 0.00 | 0.00 | 0.00 | 84 | 1013.7 |
| 20260905231125 | 75 | 189 | 1.7 | 2.6 | 0.00 | 0.00 | 0.00 | 84 | 1013.7 |
| 20260905230620 | 75 | 196 | 0.9 | 2.6 | 0.00 | 0.00 | 0.00 | 84 | 1013.7 |
| 20260905230118 | 76 | 192 | 1.7 | 2.6 | 0.00 | 0.00 | 0.00 | 84 | 1013.8 |
| 20260905225613 | 76 | 194 | 1.7 | 3.5 | 0.00 | 0.00 | 0.00 | 84 | 1013.7 |
| 20260905225108 | 76 | 189 | 0.9 | 2.6 | 0.00 | 0.00 | 0.00 | 84 | 1013.9 |
| 20260905224607 | 76 | 196 | 1.7 | 1.7 | 0.00 | 0.00 | 0.00 | 83 | 1013.8 |
| 20260905224107 | 76 | 180 | 1.7 | 2.6 | 0.00 | 0.00 | 0.00 | 83 | 1013.8 |
| 20260905223604 | 76 | 187 | 2.6 | 2.6 | 0.00 | 0.00 | 0.00 | 83 | 1013.8 |
| 20260905223100 | 76 | 185 | 1.7 | 2.6 | 0.00 | 0.00 | 0.00 | 83 | 1014.0 |
| 20260905222554 | 76 | 198 | 1.7 | 1.7 | 0.00 | 0.00 | 0.00 | 83 | 1013.9 |
| 20260905222050 | 76 | 190 | 2.6 | 2.6 | 0.00 | 0.00 | 0.00 | 83 | 1014.1 |
| 20260905221546 | 77 | 190 | 2.6 | 2.6 | 0.00 | 0.00 | 0.00 | 83 | 1013.9 |
| 20260905221042 | 77 | 201 | 0.9 | 1.7 | 0.00 | 0.00 | 0.00 | 82 | 1014.0 |
| 20260905220537 | 77 | 165 | 0.9 | 1.7 | 0.00 | 0.00 | 0.00 | 82 | 1014.0 |
| 20260905220034 | 77 | 171 | 0.0 | 1.7 | 0.00 | 0.00 | 0.00 | 82 | 1014.0 |
| 20260905215533 | 77 | 180 | 0.9 | 1.7 | 0.00 | 0.00 | 0.00 | 82 | 1014.1 |
| 20260905215029 | 77 | 184 | 1.7 | 2.6 | 0.00 | 0.00 | 0.00 | 82 | 1014.1 |
| 20260905214525 | 77 | 193 | 1.7 | 1.7 | 0.00 | 0.00 | 0.00 | 81 | 1014.0 |
| 20260905214020 | 78 | 194 | 0.9 | 1.7 | 0.00 | 0.00 | 0.00 | 81 | 1014.3 |
| 20260905213515 | 78 | 213 | 0.9 | 0.9 | 0.00 | 0.00 | 0.00 | 81 | 1014.2 |
| 20260905213011 | 78 | 205 | 0.9 | 1.7 | 0.00 | 0.00 | 0.00 | 81 | 1014.2 |
| 20260905212505 | 78 | 203 | 1.7 | 1.7 | 0.00 | 0.00 | 0.00 | 81 | 1014.4 |
| 20260905212004 | 78 | 197 | 0.9 | 1.7 | 0.00 | 0.00 | 0.00 | 81 | 1014.4 |
| 20260905211459 | 78 | 194 | 1.7 | 1.7 | 0.00 | 0.00 | 0.00 | 81 | 1014.3 |
| 20260905210955 | 78 | 205 | 1.7 | 1.7 | 0.00 | 0.00 | 0.00 | 81 | 1014.4 |
| 20260905210451 | 78 | 199 | 1.7 | 1.7 | 0.00 | 0.00 | 0.00 | 81 | 1014.4 |
| 20260905205949 | 78 | 187 | 0.9 | 1.7 | 0.00 | 0.00 | 0.00 | 80 | 1014.5 |
| 20260905205445 | 78 | 208 | 0.0 | 0.9 | 0.00 | 0.00 | 0.00 | 80 | 1014.3 |
| 20260905204944 | 79 | 206 | 1.7 | 1.7 | 0.00 | 0.00 | 0.00 | 80 | 1014.3 |
| 20260905204439 | 79 | 203 | 2.6 | 2.6 | 0.00 | 0.00 | 0.00 | 80 | 1014.6 |
| 20260905203938 | 79 | 206 | 0.9 | 1.7 | 0.00 | 0.00 | 0.00 | 79 | 1014.5 |
| 20260905203434 | 79 | 218 | 1.7 | 1.7 | 0.00 | 0.00 | 0.00 | 79 | 1014.4 |
| 20260905202929 | 79 | 255 | 0.0 | 1.7 | 0.00 | 0.00 | 0.00 | 80 | 1014.7 |
| 20260905202424 | 79 | 213 | 0.0 | 0.9 | 0.00 | 0.00 | 0.00 | 80 | 1014.6 |
| 20260905201920 | 79 | 231 | 0.0 | 1.7 | 0.00 | 0.00 | 0.00 | 80 | 1014.7 |
| 20260905201415 | 79 | 219 | 0.0 | 0.9 | 0.00 | 0.00 | 0.00 | 80 | 1014.4 |
| 20260905200909 | 79 | 219 | 0.9 | 1.7 | 0.00 | 0.00 | 0.00 | 80 | 1014.6 |
| 20260905200405 | 79 | 235 | 0.9 | 1.7 | 0.00 | 0.00 | 0.00 | 80 | 1014.6 |
| 20260905195903 | 79 | 212 | 0.0 | 0.9 | 0.00 | 0.00 | 0.00 | 80 | 1014.5 |
| 20260905195358 | 79 | 228 | 0.9 | 1.7 | 0.00 | 0.00 | 0.00 | 80 | 1014.4 |
| 20260905194854 | 79 | 215 | 0.0 | 0.0 | 0.00 | 0.00 | 0.00 | 80 | 1014.3 |
| 20260905194353 | 79 | 230 | 0.0 | 0.9 | 0.00 | 0.00 | 0.00 | 79 | 1014.5 |
| 20260905193848 | 79 | 242 | 0.0 | 0.0 | 0.00 | 0.00 | 0.00 | 79 | 1014.3 |
| 20260905193343 | 79 | 246 | 0.0 | 0.0 | 0.00 | 0.00 | 0.00 | 79 | 1014.5 |
| 20260905192838 | 79 | 214 | 0.0 | 0.0 | 0.00 | 0.00 | 0.00 | 79 | 1014.4 |
| 20260905192334 | 80 | 255 | 0.0 | 0.9 | 0.00 | 0.00 | 0.00 | 79 | 1014.8 |
| 20260905191833 | 80 | 269 | 0.0 | 1.7 | 0.00 | 0.00 | 0.00 | 79 | 1014.8 |
| 20260905191332 | 80 | 242 | 0.0 | 0.9 | 0.00 | 0.00 | 0.00 | 80 | 1014.7 |
| 20260905190830 | 80 | 220 | 0.0 | 0.9 | 0.00 | 0.00 | 0.00 | 80 | 1014.7 |
| 20260905190325 | 80 | 245 | 0.9 | 1.7 | 0.00 | 0.00 | 0.00 | 80 | 1014.6 |
| 20260905185824 | 80 | 244 | 0.0 | 0.9 | 0.00 | 0.00 | 0.00 | 80 | 1014.6 |
| 20260905185319 | 80 | 211 | 0.0 | 0.0 | 0.00 | 0.00 | 0.00 | 79 | 1014.6 |
| 20260905184818 | 80 | 230 | 0.0 | 0.0 | 0.00 | 0.00 | 0.00 | 79 | 1014.8 |
| 20260905184317 | 80 | 297 | 0.0 | 0.0 | 0.00 | 0.00 | 0.00 | 79 | 1014.7 |
| 20260905183816 | 80 | 297 | 0.0 | 0.0 | 0.00 | 0.00 | 0.00 | 79 | 1014.8 |
| 20260905183312 | 80 | 268 | 0.0 | 0.0 | 0.00 | 0.00 | 0.00 | 79 | 1014.9 |
| 20260905182806 | 80 | 289 | 0.0 | 0.9 | 0.00 | 0.00 | 0.00 | 79 | 1014.8 |
| 20260905182306 | 80 | 269 | 0.0 | 0.9 | 0.00 | 0.00 | 0.00 | 79 | 1014.9 |
| 20260905181801 | 80 | 242 | 0.0 | 0.0 | 0.00 | 0.00 | 0.00 | 79 | 1014.7 |
| 20260905181301 | 80 | 269 | 0.0 | 0.0 | 0.00 | 0.00 | 0.00 | 78 | 1014.6 |
| 20260905180800 | 80 | 240 | 0.0 | 0.0 | 0.00 | 0.00 | 0.00 | 78 | 1014.5 |
| 20260905180255 | 80 | 322 | 0.0 | 0.0 | 0.00 | 0.00 | 0.00 | 78 | 1014.6 |
| 20260905175750 | 80 | 269 | 0.0 | 0.0 | 0.00 | 0.00 | 0.00 | 78 | 1014.6 |
| 20260905175244 | 80 | 284 | 0.0 | 0.0 | 0.00 | 0.00 | 0.00 | 77 | 1014.5 |
| 20260905174739 | 80 | 284 | 0.0 | 0.0 | 0.00 | 0.00 | 0.00 | 77 | 1014.7 |
| 20260905174230 | 81 | 287 | 0.0 | 0.9 | 0.00 | 0.00 | 0.00 | 77 | 1014.8 |
| 20260905173726 | 81 | 299 | 0.0 | 0.0 | 0.00 | 0.00 | 0.00 | 77 | 1014.5 |
| 20260905173221 | 81 | 298 | 0.0 | 1.7 | 0.00 | 0.00 | 0.00 | 76 | 1014.6 |
| 20260905172715 | 81 | 255 | 0.0 | 0.9 | 0.00 | 0.00 | 0.00 | 76 | 1014.5 |
| 20260905172215 | 81 | 336 | 0.0 | 0.9 | 0.00 | 0.00 | 0.00 | 76 | 1014.5 |
| 20260905171711 | 81 | 303 | 0.9 | 1.7 | 0.00 | 0.00 | 0.00 | 76 | 1014.4 |
| 20260905171206 | 81 | 202 | 0.0 | 1.7 | 0.00 | 0.00 | 0.00 | 76 | 1014.4 |
| 20260905170703 | 81 | 322 | 0.0 | 1.7 | 0.00 | 0.00 | 0.00 | 76 | 1014.4 |
| 20260905170158 | 81 | 352 | 0.9 | 1.7 | 0.00 | 0.00 | 0.00 | 76 | 1014.1 |
| 20260905165658 | 81 | 311 | 0.0 | 0.9 | 0.00 | 0.00 | 0.00 | 76 | 1014.2 |
| 20260905165153 | 81 | 291 | 0.9 | 1.7 | 0.00 | 0.00 | 0.00 | 76 | 1014.1 |
| 20260905164648 | 81 | 271 | 1.7 | 1.7 | 0.00 | 0.00 | 0.00 | 76 | 1014.2 |
| 20260905164147 | 81 | 283 | 0.0 | 0.0 | 0.00 | 0.00 | 0.00 | 76 | 1014.0 |
| 20260905163643 | 82 | 343 | 0.0 | 0.9 | 0.00 | 0.00 | 0.00 | 75 | 1014.0 |
| 20260905163140 | 82 | 269 | 0.0 | 0.9 | 0.00 | 0.00 | 0.00 | 75 | 1013.8 |
| 20260905162636 | 82 | 280 | 2.6 | 2.6 | 0.00 | 0.00 | 0.00 | 75 | 1014.0 |
| 20260905162134 | 82 | 322 | 1.7 | 1.7 | 0.00 | 0.00 | 0.00 | 75 | 1013.7 |
| 20260905161629 | 82 | 305 | 0.9 | 3.5 | 0.00 | 0.00 | 0.00 | 75 | 1013.8 |
| 20260905161127 | 82 | 230 | 0.0 | 1.7 | 0.00 | 0.00 | 0.00 | 74 | 1013.8 |
| 20260905160626 | 82 | 352 | 0.0 | 2.6 | 0.00 | 0.00 | 0.00 | 74 | 1013.9 |
| 20260905160121 | 82 | 331 | 0.0 | 2.6 | 0.00 | 0.00 | 0.00 | 74 | 1013.9 |
| 20260905155620 | 82 | 315 | 1.7 | 3.5 | 0.00 | 0.00 | 0.00 | 73 | 1013.8 |
| 20260905155119 | 83 | 289 | 1.7 | 2.6 | 0.00 | 0.00 | 0.00 | 73 | 1013.8 |
| 20260905154614 | 83 | 304 | 3.5 | 4.3 | 0.00 | 0.00 | 0.00 | 73 | 1013.8 |
| 20260905154109 | 83 | 22 | 1.7 | 2.6 | 0.00 | 0.00 | 0.00 | 73 | 1013.8 |
| 20260905153605 | 83 | 323 | 0.9 | 2.6 | 0.00 | 0.00 | 0.00 | 72 | 1013.6 |
| 20260905153101 | 84 | 254 | 1.7 | 1.7 | 0.00 | 0.00 | 0.00 | 72 | 1013.9 |
| 20260905152555 | 84 | 309 | 1.7 | 1.7 | 0.00 | 0.00 | 0.00 | 71 | 1013.8 |
| 20260905152050 | 84 | 20 | 0.0 | 3.5 | 0.00 | 0.00 | 0.00 | 71 | 1013.7 |
| 20260905151545 | 84 | 290 | 1.7 | 1.7 | 0.00 | 0.00 | 0.00 | 71 | 1013.8 |
| 20260905151041 | 84 | 224 | 0.0 | 2.6 | 0.00 | 0.00 | 0.00 | 71 | 1013.7 |
| 20260905150536 | 84 | 10 | 0.0 | 2.6 | 0.00 | 0.00 | 0.00 | 71 | 1013.8 |
| 20260905150033 | 84 | 333 | 1.7 | 1.7 | 0.00 | 0.00 | 0.00 | 71 | 1013.6 |
| 20260905145527 | 84 | 269 | 0.0 | 5.2 | 0.00 | 0.00 | 0.00 | 70 | 1013.7 |
| 20260905145027 | 84 | 2 | 0.9 | 5.2 | 0.00 | 0.00 | 0.00 | 70 | 1013.6 |
| 20260905144521 | 85 | 317 | 2.6 | 4.3 | 0.00 | 0.00 | 0.00 | 69 | 1013.6 |
| 20260905144020 | 86 | 14 | 0.9 | 3.5 | 0.00 | 0.00 | 0.00 | 69 | 1013.5 |
| 20260905143519 | 86 | 286 | 1.7 | 5.2 | 0.00 | 0.00 | 0.00 | 69 | 1013.5 |
| 20260905143015 | 86 | 281 | 1.7 | 7.0 | 0.00 | 0.00 | 0.00 | 66 | 1013.4 |
| 20260905142513 | 86 | 327 | 1.7 | 3.5 | 0.00 | 0.00 | 0.00 | 68 | 1013.4 |
| 20260905142009 | 86 | 49 | 0.9 | 5.2 | 0.00 | 0.00 | 0.00 | 68 | 1013.2 |
| 20260905141508 | 86 | 330 | 1.7 | 4.3 | 0.00 | 0.00 | 0.00 | 67 | 1013.4 |
| 20260905141006 | 87 | 312 | 4.3 | 4.3 | 0.00 | 0.00 | 0.00 | 67 | 1013.5 |
| 20260905140500 | 87 | 306 | 0.9 | 2.6 | 0.00 | 0.00 | 0.00 | 66 | 1013.3 |
| 20260905135958 | 87 | 5 | 1.7 | 5.2 | 0.00 | 0.00 | 0.00 | 64 | 1013.3 |
| 20260905135455 | 87 | 251 | 0.0 | 3.5 | 0.00 | 0.00 | 0.00 | 66 | 1013.4 |
| 20260905134950 | 87 | 317 | 3.5 | 4.3 | 0.00 | 0.00 | 0.00 | 66 | 1013.3 |
| 20260905134449 | 88 | 316 | 1.7 | 5.2 | 0.00 | 0.00 | 0.00 | 64 | 1013.2 |
| 20260905133948 | 88 | 305 | 1.7 | 3.5 | 0.00 | 0.00 | 0.00 | 64 | 1013.2 |
| 20260905133443 | 87 | 225 | 0.9 | 3.5 | 0.00 | 0.00 | 0.00 | 66 | 1013.3 |
| 20260905132937 | 87 | 59 | 0.0 | 5.2 | 0.00 | 0.00 | 0.00 | 66 | 1013.2 |
| 20260905132432 | 87 | 350 | 1.7 | 4.3 | 0.00 | 0.00 | 0.00 | 66 | 1013.4 |
| 20260905131927 | 88 | 62 | 1.7 | 5.2 | 0.00 | 0.00 | 0.00 | 65 | 1013.3 |